Weather History for Freeport, Bahamas

Change the Weather History Date:

Thursday, March 6, 2014

  Actual Average Record
Temperature  
Mean Temperature 74 °F -  
Max Temperature 82 °F 76 °F 84 °F (2003)
Min Temperature 66 °F 65 °F 48 °F (2013)
Cooling Degree Days 9    
Growing Degree Days 24 (Base 50)    
Moisture  
Dew Point 74 °F    
Average Humidity 96    
Maximum Humidity 100    
Minimum Humidity 89    
Precipitation  
Precipitation 0.79 in - - ()
Sea Level Pressure  
Sea Level Pressure 29.87 in    
Wind  
Wind Speed 9 mph ()    
Max Wind Speed 20 mph    
Max Gust Speed -    
Visibility 6.5 miles    
Events Rain , Thunderstorm    
Averages and records for this station are not official NWS values.
T = Trace of Precipitation, MM = Missing Value Source: Averaged Metar Reports

Daily Weather History Graph

Daily Weather History Graph

Search for Another Location

Airport:

Trip Planner

Search our weather history database for the weather conditions in past years. The results will help you decide how hot, cold, wet, or windy it might be!

Date:

Astronomy

Mar. 06, 2014 Rise Set
Actual Time 6:33 AM EST 6:18 PM EST
Civil Twilight 6:10 AM EST 6:42 PM EST
Nautical Twilight 5:43 AM EST 7:08 PM EST
Astronomical Twilight 5:16 AM EST 7:35 PM EST
Moon 10:11 AM EST (3/6) 11:49 PM EST (3/6)
Length of Visible Light 12h 31m
Length of Day
11h 45m
Waxing Crescent, 32% of the Moon is Illuminated
Mar 6
Waxing Crescent
Mar 8
First Quarter
Mar 16
Full
Mar 23
Last Quarter
Mar 30
New

Hourly Weather History & Observations

Time (EST) Temp. Heat Index Dew Point Humidity Pressure Visibility Wind Dir Wind Speed Gust Speed Precip Events Conditions
7:00 AM 76 °F - 75 °F 96% 29.92 in 12 mi SSE 4.6 mph - -   Scattered Clouds
7:00 AM 75.2 °F - 75.2 °F 100% 29.92 in 6.2 mi SSE 4.6 mph - N/A   Scattered Clouds
8:00 AM 78.8 °F - 77.0 °F 94% 29.93 in 6.2 mi South 8.1 mph - N/A   Mostly Cloudy
9:00 AM 78.8 °F - 77.0 °F 94% 29.92 in 6.2 mi SSE 10.4 mph - N/A   Mostly Cloudy
10:00 AM 79 °F - 76 °F 89% 29.94 in 9 mi South 11.5 mph - -   Mostly Cloudy
10:00 AM 78.8 °F - 77.0 °F 94% 29.93 in 6.2 mi South 11.5 mph - N/A   Mostly Cloudy
11:00 AM 80.6 °F 87.1 °F 77.0 °F 89% 29.92 in 6.2 mi South 16.1 mph - N/A   Mostly Cloudy
12:00 PM 80.6 °F 88.1 °F 78.8 °F 94% 29.90 in 6.2 mi SSW 15.0 mph - N/A   Mostly Cloudy
1:00 PM 81 °F - 78 °F 89% 29.87 in 12 mi South 16.1 mph - -   Partly Cloudy
1:00 PM 80.6 °F 88.1 °F 78.8 °F 94% 29.87 in 6.2 mi South 16.1 mph - N/A   Mostly Cloudy
2:00 PM 80.6 °F 88.1 °F 78.8 °F 94% 29.85 in 6.2 mi South 15.0 mph - N/A   Mostly Cloudy
2:38 PM 78.8 °F - 77.0 °F 94% 29.83 in 6.2 mi South 19.6 mph - N/A Thunderstorm Thunderstorm
3:00 PM 73.4 °F - 73.4 °F 100% 29.83 in 6.2 mi SSW 11.5 mph - N/A Rain , Thunderstorm Light Thunderstorms and Rain
4:00 PM 73 °F - 73 °F 100% 29.84 in 4 mi South 19.6 mph - - Rain , Thunderstorm Thunderstorms and Rain
4:00 PM 73.4 °F - 73.4 °F 100% 29.84 in 3.7 mi South 19.6 mph - N/A Rain , Thunderstorm Thunderstorms and Rain
5:00 PM 75.2 °F - 75.2 °F 100% 29.80 in 6.2 mi SSW 6.9 mph - N/A Rain , Thunderstorm Light Thunderstorms and Rain
5:18 PM 66.2 °F - 66.2 °F 100% 29.87 in 1.0 mi West 19.6 mph - N/A Rain , Thunderstorm Heavy Thunderstorms and Rain
5:33 PM 66.2 °F - 66.2 °F 100% 29.87 in 5.6 mi WSW 11.5 mph - N/A Rain , Thunderstorm Thunderstorms and Rain
6:00 PM 68.0 °F - 68.0 °F 100% 29.82 in 6.2 mi SW 5.8 mph - N/A Rain Light Rain
7:00 PM 69 °F - 68 °F 94% 29.81 in 9 mi South 3.5 mph - -   Partly Cloudy
7:00 PM 68.0 °F - 68.0 °F 100% 29.81 in 6.2 mi South 3.5 mph - N/A   Mostly Cloudy
8:00 PM 71.6 °F - 69.8 °F 94% 29.82 in 6.2 mi SSW 8.1 mph - N/A   Mostly Cloudy